Puerto Plata, Dominican Republic

8:51 PM AST on December 04, 2016 (GMT -0400)
Gregorio Luperon International

Weather History for MDPP - September, 2012

Change the Weather History Date:

Tuesday, September 25, 2012

  Actual Average Record
Temperature  
Mean Temperature 82 °F -  
Max Temperature 93 °F 88 °F 95 °F (1996)
Min Temperature 71 °F 74 °F 37 °F (2007)
Cooling Degree Days 17    
Growing Degree Days 32 (Base 50)    
Moisture  
Dew Point 75 °F    
Average Humidity 71    
Maximum Humidity 94    
Minimum Humidity 44    
Precipitation  
Precipitation 0.00 in - - ()
Sea Level Pressure  
Sea Level Pressure 30.00 in    
Wind  
Wind Speed 7 mph ()    
Max Wind Speed 18 mph    
Max Gust Speed -    
Visibility 7.2 miles    
Events      
Averages and records for this station are not official NWS values.
T = Trace of Precipitation, MM = Missing Value Source: Averaged Metar Reports

Daily Weather History Graph

Daily Weather History Graph

Search for Another Location

Airport or City:

Trip Planner

Search our weather history database for the weather conditions in past years. The results will help you decide how hot, cold, wet, or windy it might be!

Date:

Astronomy

Sep. 25, 2012 Rise Set
Actual Time 6:31 AM AST 6:35 PM AST
Civil Twilight 6:09 AM AST 6:57 PM AST
Nautical Twilight 5:44 AM AST 7:22 PM AST
Astronomical Twilight 5:18 AM AST 7:48 PM AST
Moon 3:30 PM AST (9/25) 2:22 AM AST (9/25)
Length of Visible Light 12h 47m
Length of Day
12h 03m
Waxing Gibbous, 80% of the Moon is Illuminated
Sep 25
Waxing Gibbous
Sep 29
Full
Oct 8
Last Quarter
Oct 15
New
Oct 21
First Quarter

Hourly Weather History & Observations

Time (AST) Temp. Heat Index Dew Point Humidity Pressure Visibility Wind Dir Wind Speed Gust Speed Precip Events Conditions
2:00 AM 78 °F - 74 °F 86% 30.01 in 10 mi ESE 6.7 mph - -   Scattered Clouds
2:00 AM 78.8 °F - 75.2 °F 89% 30.01 in 6.2 mi ESE 6.9 mph - N/A   Partly Cloudy
5:00 AM 75.2 °F - 73.4 °F 94% 29.98 in 6.2 mi Calm Calm - N/A   Partly Cloudy
8:00 AM 77 °F - 74 °F 90% 30.03 in 10 mi Calm Calm - -   Scattered Clouds
8:00 AM 77.0 °F - 75.2 °F 94% 30.01 in 6.2 mi Calm Calm - N/A   Partly Cloudy
9:00 AM 86.0 °F 95.1 °F 75.2 °F 70% 30.01 in 6.2 mi ESE 11.5 mph - N/A   Partly Cloudy
10:00 AM 89.6 °F 98.2 °F 73.4 °F 59% 30.01 in 6.2 mi SE 6.9 mph - N/A   Partly Cloudy
11:00 AM 92 °F - 73 °F 44% 30.04 in 10 mi East 17.9 mph - -   Scattered Clouds
11:00 AM 91.4 °F 100.1 °F 73.4 °F 55% 30.04 in 6.2 mi East 18.4 mph - N/A   Partly Cloudy
12:00 PM 93.2 °F 105.0 °F 75.2 °F 56% 30.01 in 6.2 mi ENE 17.3 mph - N/A   Partly Cloudy
1:00 PM 91.4 °F 105.1 °F 77.0 °F 63% 30.01 in 6.2 mi ENE 9.2 mph - N/A   Partly Cloudy
2:00 PM 93 °F - 76 °F 50% 30.00 in 10 mi ENE 17.9 mph - -   Scattered Clouds
2:00 PM 93.2 °F 107.2 °F 77.0 °F 59% 29.98 in 6.2 mi ENE 18.4 mph - N/A   Partly Cloudy
3:00 PM 93.2 °F 107.2 °F 77.0 °F 59% 29.95 in 6.2 mi East 13.8 mph - N/A   Partly Cloudy
4:00 PM 91.4 °F 105.1 °F 77.0 °F 63% 29.95 in 6.2 mi East 12.7 mph - N/A   Partly Cloudy
5:00 PM 89.6 °F 99.8 °F 75.2 °F 62% 29.95 in 6.2 mi East 13.8 mph - N/A   Partly Cloudy
6:00 PM 86.0 °F 95.1 °F 75.2 °F 70% 29.98 in 6.2 mi East 11.5 mph - N/A   Partly Cloudy
7:00 PM 84.2 °F 92.3 °F 75.2 °F 74% 29.98 in 6.2 mi East 9.2 mph - N/A   Partly Cloudy
8:00 PM 83 °F - 76 °F 73% 30.00 in 10 mi SE 6.7 mph - -   Scattered Clouds
8:00 PM 84.2 °F 92.3 °F 75.2 °F 74% 29.98 in 6.2 mi SE 5.8 mph - N/A   Partly Cloudy
11:00 PM 78 °F - 74 °F 84% 30.06 in 10 mi Calm Calm - -   Scattered Clouds
11:00 PM 78.8 °F - 73.4 °F 83% 30.04 in 6.2 mi Calm Calm - N/A   Partly Cloudy